Presure
147 129 89 95 101 146 93 91 93 90 94 94 92 88 94 96 96 97 96 91 128 118 153 145 150 81 83 105 144 86 80 128 78 95 75 136 76 88 75 78 79 79 79
151 146 160 134 103 101 175 94 87 93 99 96 98 99 89 95 101 96 97 97 107 149 153 154 155 101 117 95 132 131 86 143 78 76 72 69 75 79 83 73 76 77 78
167 171 98 158 100 103 95 111 101 97 94 91 99 97 90 94 95 96 94 92 96 97 108 118 151 87 147 106 87 155 151 88 79 86 75 82 72 77 80 79 77 74 77
129 144 104 107 111 91 95 95 96 97 95 96 97 97 96 97 96 127 92 94 148 91 95 151 127 88 77 81 90 117 118 110 91 91 93 90 93 114 90 72 74 78 75
159 156 97 103 181 156 163 111 97 96 95 96 94 93 97 97 96 96 147 95 124 161 129 96 94 144 111 111 147 81 89 91 106 97 98 88 81 89 79 75 84 75 71
165 98 101 104 164 113 97 98 103 146 146 117 148 149 147 142 97 142 129 141 95 96 114 136 80 84 70 72 72 82 84 85 87 212 121 144 71 68 75 90 88 86 143
96 165 144 137 100 162 102 172 148 104 147 113 144 145 142 145 142 143 142 96 138 147 147 85 139 91 88 92 84 112 154 84 153 139 105 216 215 72 102 134 153 104 144
157 156 97 102 130 131 171 154 140 144 127 148 143 111 154 143 84 76 101 96 127 84 168 154 114 80 83 76 85 86 148 88 143 109 193 166 134 124 121 94 112 167 169
163 154 152 157 156 152 96 139 144 145 135 140 144 111 142 96 110 93 99 68 69 77 74 77 78 79 84 104 85 89 88 90 78 103 181 183 187 182 231 239 232 228 229
143 171 159 149 150 156 145 148 141 127 133 133 137 62 77 106 120 80 76 76 77 74 82 82 84 94 90 90 202 95 100 200 195 191 180 207 260 237 239 228 229 227 251
150 146 141 142 145 153 141 140 127 124 96 71 63 65 104 65 78 81 80 78 171 109 132 109 90 90 158 209 216 208 198 192 191 184 188 205 143 169 142 231 257 245 251
158 159 142 135 136 130 107 141 94 70 74 90 76 127 84 72 77 72 72 82 87 87 154 163 120 201 208 215 216 174 193 191 183 215 204 146 133 151 136 137 232 161 134
155 147 113 151 147 141 80 152 147 72 109 80 75 76 82 77 81 78 82 134 106 79 181 148 202 197 208 204 138 145 194 125 207 123 202 160 210 220 130 221 131 132 132
97 97 96 169 153 148 147 76 122 85 75 72 75 79 80 72 87 186 171 195 186 146 197 200 144 195 199 143 187 180 159 125 125 198 211 219 215 225 254 223 227 229 215
154 159 135 112 156 93 90 82 77 77 83 81 79 76 71 169 175 182 189 183 177 194 201 201 199 198 193 150 129 148 193 194 195 197 215 214 225 233 250 239 207 225 224
94 89 80 93 86 93 83 72 78 86 76 79 82 153 149 198 191 186 181 165 147 196 199 195 195 187 144 176 184 187 194 194 200 213 218 230 236 244 248 231 234 217 218
93 93 95 82 93 94 72 77 86 83 84 182 181 179 178 184 184 179 172 131 189 194 194 191 134 123 127 184 193 192 190 202 220 236 247 248 241 244 240 233 228 217 214
87 94 94 88 85 90 78 87 82 99 188 179 175 187 180 174 172 173 142 155 179 195 191 191 186 182 182 186 191 195 189 222 255 261 270 264 253 243 236 234 223 223 212
91 82 78 113 105 78 87 127 129 183 180 172 171 184 184 182 181 189 186 173 196 192 187 184 184 187 179 191 201 212 236 280 291 286 270 265 255 146 237 226 224 225 211
116 167 172 176 168 181 183 182 176 172 171 171 174 180 186 146 188 183 178 192 193 192 182 181 174 185 193 206 222 242 325 320 306 254 136 264 256 250 240 233 227 225 212
176 179 178 181 183 177 174 170 169 169 170 171 182 184 182 182 178 196 197 199 197 185 179 180 187 196 194 207 285 349 334 325 314 308 294 279 258 258 245 238 233 226 210
178 178 179 176 170 171 169 171 170 171 177 184 187 185 185 192 195 198 193 195 181 180 174 184 193 194 213 290 345 323 338 323 320 312 314 297 274 265 257 245 237 236 225
178 176 169 168 169 168 170 170 178 182 188 191 191 191 199 199 200 191 185 180 182 174 180 191 203 216 350 303 283 234 231 223 227 268 286 254 271 281 264 259 249 241 236
172 163 162 170 168 169 175 181 188 193 191 191 193 194 195 194 189 183 178 181 173 182 178 196 217 369 286 172 155 218 215 202 195 200 207 223 314 273 282 267 262 254 240
176 185 173 166 171 179 183 184 194 190 190 190 190 193 190 182 172 177 176 174 182 186 194 214 354 272 158 199 225 217 218 204 201 193 200 207 205 211 237 241 240 269 265
172 165 170 175 182 184 186 193 191 188 190 185 187 182 176 157 173 179 174 180 189 191 201 270 243 156 195 210 201 209 191 212 188 215 212 218 195 190 200 197 196 237 198
Wind_Speed
29 21 13 13 14 21 11 10 10 11 11 11 12 13 11 11 10 10 11 12 18 16 24 26 26 6 8 15 29 12 11 30 10 17 12 37 15 17 18 18 19 21 21
30 27 29 22 15 14 20 13 13 13 13 12 12 13 14 13 16 15 14 14 16 25 27 28 30 17 21 16 34 35 15 35 12 15 16 15 18 19 21 20 22 23 26
36 36 16 27 15 15 15 16 16 16 16 17 15 13 16 14 14 15 15 15 17 17 18 22 31 17 32 24 16 40 39 20 17 23 20 24 22 22 24 26 25 24 27
27 29 18 19 19 16 18 17 16 17 17 18 17 17 16 16 16 21 15 17 27 15 18 32 28 19 13 19 24 32 33 34 28 27 30 31 33 38 34 22 26 29 25
35 30 19 20 26 29 27 22 19 20 18 20 18 16 20 21 19 19 28 20 30 35 33 26 23 37 30 31 41 24 28 29 35 33 33 31 32 41 32 28 40 28 24
37 19 20 20 32 24 22 23 25 25 25 24 25 28 25 27 25 30 26 31 25 25 33 36 16 24 22 22 25 28 30 34 33 50 41 52 25 16 34 45 47 47 55
20 36 31 29 25 33 26 31 31 26 29 29 29 28 28 29 31 33 33 25 36 39 40 25 39 32 32 36 35 40 47 40 52 43 32 55 56 22 52 54 57 54 58
40 38 23 27 31 28 34 34 29 32 31 32 32 22 36 33 16 17 28 30 38 23 42 46 36 32 37 31 40 42 43 47 51 53 61 59 55 56 58 57 60 62 61
44 41 40 40 39 37 24 33 35 36 34 34 35 29 35 22 30 26 31 18 21 30 25 33 34 34 42 45 44 47 48 49 48 48 60 63 61 63 55 57 59 61 62
39 43 45 40 40 41 38 39 37 37 35 33 36 11 21 32 37 30 29 28 33 29 42 42 45 48 48 49 51 53 53 47 52 59 59 64 42 51 52 55 57 58 61
43 44 38 39 41 44 39 39 40 34 23 16 15 18 34 17 34 37 38 40 54 50 50 53 54 54 52 54 50 47 47 48 51 60 63 58 58 57 64 51 53 57 53
52 52 44 38 39 38 27 44 24 13 21 28 27 45 36 30 37 26 30 49 55 56 55 58 55 57 58 56 52 57 49 50 57 44 51 62 65 61 66 68 49 65 68
48 47 38 51 51 48 18 52 50 25 44 27 32 36 42 41 48 46 54 59 60 38 59 54 61 59 59 57 66 67 53 68 52 67 53 63 48 47 67 41 70 73 74
32 33 33 53 53 52 50 22 50 29 32 33 38 44 47 33 51 62 61 62 61 52 61 62 58 61 61 65 57 57 65 74 75 55 60 59 51 49 41 42 39 38 45
56 56 46 39 54 33 32 26 29 34 36 39 43 43 32 62 62 64 63 64 64 63 63 63 63 62 61 65 68 68 63 65 62 64 70 62 63 56 44 39 46 36 36
35 30 25 38 33 38 30 31 34 38 39 44 50 59 60 63 64 64 64 62 59 64 64 64 64 64 67 61 62 64 68 68 71 74 70 68 63 53 46 42 37 38 36
36 39 43 31 42 42 34 36 39 41 44 62 63 64 64 63 65 66 68 51 65 64 65 66 70 71 72 65 69 68 67 73 80 76 69 62 57 50 48 44 41 39 38
36 45 45 40 40 43 38 42 42 48 63 65 65 66 66 68 71 70 60 61 66 66 66 67 67 66 68 71 72 75 68 80 76 71 59 51 48 48 48 46 42 41 41
44 37 35 51 47 41 47 53 55 63 64 66 69 67 67 69 70 68 69 67 67 67 66 67 68 71 69 73 77 78 84 76 63 53 52 48 45 54 47 48 44 43 43
48 65 63 63 63 64 63 63 63 66 68 69 71 71 70 61 70 71 68 70 69 68 67 68 66 73 76 79 81 86 67 56 53 51 57 49 46 47 48 50 49 46 45
68 65 63 64 63 62 62 65 67 69 71 73 73 73 73 73 73 71 71 71 71 68 69 71 75 77 76 79 81 58 52 48 45 46 46 46 49 50 51 52 53 51 48
67 65 65 62 63 65 67 68 70 72 73 75 74 75 75 73 71 71 72 71 70 70 70 76 79 77 79 77 54 51 43 42 42 42 44 48 50 54 53 55 54 57 53
66 66 64 65 66 68 69 72 73 75 76 74 75 76 74 73 72 72 72 73 74 73 76 79 81 83 65 54 50 50 47 43 41 41 41 41 46 56 55 57 58 59 57
64 65 67 69 69 71 74 75 75 74 75 75 75 74 74 73 72 72 74 75 74 78 74 80 84 58 53 61 65 49 46 46 45 43 39 39 47 45 57 57 59 61 59
68 71 70 71 74 75 76 77 74 75 76 75 75 74 74 73 73 75 76 76 79 80 81 86 50 51 64 58 51 49 48 46 45 49 43 38 40 40 40 41 46 62 62
67 68 72 74 75 76 77 75 76 77 77 76 75 74 74 69 77 79 79 81 83 83 82 64 65 67 62 54 55 52 49 51 47 51 50 42 41 42 44 43 43 45 45
Wind_Direction
266 263 234 242 247 284 246 258 261 271 273 282 285 290 303 306 307 316 312 294 289 291 277 266 273 291 298 276 266 306 304 270 294 280 318 262 312 299 307 300 301 303 300
272 271 280 272 250 251 293 249 266 252 265 265 271 282 287 299 302 305 311 311 303 286 286 286 287 288 272 282 268 271 285 271 280 297 311 315 295 287 293 308 303 298 295
282 286 242 285 250 258 248 264 258 257 257 260 276 268 265 272 280 290 287 293 298 300 285 286 285 300 278 283 287 279 276 292 286 294 292 291 297 290 290 291 293 295 290
261 275 254 255 262 254 254 255 258 263 266 273 276 277 277 281 277 289 281 288 287 290 291 287 288 285 293 294 289 283 281 277 291 291 286 286 284 283 286 297 295 293 290
275 276 250 256 288 280 283 265 261 265 270 273 276 277 282 287 287 286 293 285 281 291 291 292 293 280 289 289 276 300 295 295 287 294 279 286 287 285 290 294 286 297 304
273 249 257 261 281 267 256 261 271 276 278 278 286 290 289 283 288 284 291 282 292 293 287 278 297 306 307 302 297 299 294 299 299 281 281 277 300 303 291 287 284 285 272
240 273 270 270 257 278 267 285 281 274 285 279 286 288 285 292 286 288 287 296 292 288 288 294 288 292 290 294 304 294 288 298 289 284 290 282 282 307 285 277 270 281 271
270 271 250 262 269 270 279 277 276 283 280 288 286 293 291 289 286 298 287 292 281 291 296 295 295 303 300 289 300 299 298 298 291 290 283 280 279 279 278 284 282 277 273
266 271 272 273 273 274 268 276 281 283 284 286 287 285 286 284 288 289 289 293 301 296 294 295 298 300 295 296 297 295 294 293 284 290 290 287 280 279 275 271 273 271 269
269 268 269 272 274 275 278 279 279 272 278 282 284 293 293 287 284 293 293 294 293 294 290 292 293 290 291 292 306 291 291 296 291 289 287 291 287 285 279 278 275 271 268
267 268 269 272 275 277 278 277 275 283 286 291 296 305 286 283 297 294 294 294 300 292 293 296 297 298 307 308 304 298 293 288 285 285 286 286 275 281 278 279 272 269 268
264 268 267 267 271 269 274 279 274 276 299 286 300 277 298 300 299 298 294 296 295 294 306 306 295 310 310 309 306 289 290 286 294 290 280 286 281 281 279 280 275 279 279
265 267 268 269 273 276 285 283 284 304 281 295 305 300 293 298 296 299 295 299 294 298 303 291 310 307 310 310 282 283 298 293 303 293 303 296 299 306 282 282 280 280 281
261 264 267 271 273 276 278 292 272 286 298 303 300 296 295 303 298 301 296 305 305 292 309 308 289 310 311 281 307 302 298 292 292 299 307 309 303 306 303 288 284 276 272
267 268 269 272 273 272 276 280 292 294 288 292 294 296 300 296 298 300 303 303 302 309 307 308 308 309 310 295 291 297 308 307 304 305 308 304 307 306 300 292 282 281 279
264 267 261 270 274 274 273 302 294 285 294 293 291 295 289 299 300 300 300 298 296 306 306 307 308 307 301 307 308 308 309 306 306 307 305 303 301 299 294 291 285 276 273
265 268 269 273 274 276 300 292 285 287 290 296 296 296 296 297 298 296 297 292 304 305 305 307 289 291 294 310 310 307 305 306 307 303 300 296 293 290 288 284 282 274 271
268 268 270 275 277 278 289 286 290 293 294 294 293 297 295 294 293 296 295 296 300 304 306 308 308 309 309 309 308 307 303 307 301 298 293 287 282 279 280 279 277 273 268
272 273 278 274 279 286 286 288 291 292 291 290 291 296 295 295 297 299 301 296 301 303 306 307 309 308 306 307 307 307 306 300 296 288 284 278 271 291 269 275 273 271 267
271 269 275 279 278 285 288 288 288 288 289 290 290 293 296 295 297 299 295 300 301 302 306 307 305 306 307 309 309 307 299 292 287 283 294 270 268 262 262 263 266 265 263
270 274 277 280 283 283 283 283 284 286 287 288 292 293 293 294 296 297 297 299 301 306 306 307 307 308 307 306 304 300 296 292 287 277 269 261 265 256 258 258 257 260 263
272 276 278 280 279 281 281 284 285 286 289 290 290 291 291 292 293 295 300 303 305 305 306 307 308 307 308 305 301 300 295 293 288 281 270 259 258 257 253 253 257 256 258
271 275 276 277 278 280 282 283 288 288 288 288 288 289 290 294 295 301 304 304 305 306 305 306 306 308 302 301 302 304 306 304 304 293 283 284 268 253 257 252 252 255 257
271 272 274 277 278 279 284 286 285 284 286 286 287 290 293 294 300 302 302 302 302 304 302 306 308 300 299 296 294 306 304 300 294 293 299 294 262 268 254 257 255 253 256
269 271 274 276 278 282 284 285 283 283 283 285 287 291 295 300 301 301 300 301 302 304 305 307 300 298 295 301 305 302 301 299 299 296 294 294 293 291 282 275 269 259 255
270 272 273 276 280 281 282 281 280 282 284 290 294 296 297 298 300 299 300 301 304 305 303 303 306 296 301 304 301 302 294 301 289 304 302 300 284 287 289 285 284 274 281